Dewpoint
32 27 28 25 25 26 24 24 33 56 57 57 56 56 58 60 59 59 60 58 59 60 63 65 66 67 68 68 68 67 67 67 69 68 66 67 68 69 71 72 72 72 72 72
27 24 25 26 26 24 25 24 49 56 58 56 57 56 59 60 59 58 60 62 58 60 62 64 65 67 67 67 68 68 68 68 69 69 69 69 69 70 71 71 72 72 72 71
28 28 26 25 24 23 22 20 48 52 56 57 56 55 57 60 61 60 62 62 63 61 62 63 64 66 66 66 67 68 68 69 69 70 70 70 71 71 71 71 72 72 72 71
27 29 27 26 25 24 21 21 35 54 49 46 53 45 54 58 59 60 60 61 63 63 62 63 63 65 64 66 67 68 68 69 69 71 70 69 69 69 70 69 71 72 72 72
25 22 26 26 25 23 22 36 35 52 47 46 47 43 46 57 56 58 58 60 63 61 60 61 63 64 64 65 66 68 68 68 70 71 70 69 69 70 70 71 71 72 72 72
25 27 24 24 24 23 49 47 48 47 46 39 43 42 45 53 55 58 58 59 62 63 61 62 64 64 63 64 66 68 68 68 69 70 69 69 68 69 70 70 70 71 72 72
26 26 28 25 22 35 47 44 39 38 39 39 42 46 45 54 56 58 58 58 60 64 63 62 62 62 62 65 67 68 68 68 70 70 69 69 69 69 69 70 70 70 71 72
24 22 26 22 24 25 43 39 37 32 35 36 47 43 47 57 58 58 58 57 60 64 64 63 64 63 63 66 67 68 68 68 70 70 70 69 68 69 70 70 71 71 71 72
26 24 28 25 21 32 39 38 36 34 34 39 44 50 55 57 59 59 58 59 61 63 64 64 65 67 64 65 67 68 68 68 69 70 71 69 68 67 69 70 71 71 72 71
27 25 27 28 30 31 32 34 29 30 28 27 43 45 46 54 56 59 60 60 61 63 64 65 66 68 67 66 67 69 69 68 70 70 71 70 69 69 70 70 70 71 72 72
30 28 26 28 28 29 28 28 27 28 30 31 36 41 54 54 56 56 58 60 61 63 64 64 66 68 68 68 69 70 69 68 69 70 70 70 71 71 70 69 69 70 72 71
30 28 26 27 29 30 27 30 27 27 28 38 38 41 55 57 56 56 58 60 61 62 63 65 66 67 67 67 67 66 66 67 67 68 68 68 69 70 71 71 70 70 71 71
24 26 25 25 28 26 25 27 27 26 38 39 32 38 55 57 56 58 58 59 61 61 63 64 65 66 66 66 66 65 67 67 67 68 68 68 68 69 70 71 72 72 72 71
35 29 27 27 24 25 24 25 25 26 31 38 38 47 53 54 54 57 59 60 60 60 61 62 64 65 66 65 66 67 67 67 67 67 67 66 67 68 69 71 72 72 72 71
26 27 32 32 29 28 26 23 26 23 28 30 40 46 51 53 54 57 59 58 58 58 59 60 61 63 64 64 65 66 66 65 66 67 67 66 67 68 68 69 69 70 71 72
27 28 32 30 33 29 22 24 30 47 48 47 48 46 53 53 55 57 58 57 56 56 56 57 59 61 63 64 64 64 63 63 65 64 63 64 65 66 67 67 67 68 69 69
28 28 28 26 30 27 26 25 27 37 48 48 45 47 53 52 55 56 57 57 56 56 52 54 58 60 61 61 62 61 62 62 60 59 59 60 63 63 64 64 66 67 67 67
28 29 29 27 32 26 28 29 46 49 50 50 50 52 52 53 54 55 56 55 53 51 53 54 57 58 57 57 57 57 58 57 54 54 54 56 57 58 61 63 63 63 64 64
28 28 26 24 27 27 28 29 31 37 44 51 51 52 52 52 52 51 54 52 49 48 49 52 54 54 53 53 54 54 56 55 52 51 53 54 55 55 56 57 60 61 63 64
24 25 25 26 23 20 29 34 39 44 32 52 52 52 52 51 48 49 49 50 47 46 49 51 51 50 52 53 51 50 49 49 50 50 51 51 53 53 54 54 56 57 60 62
22 25 19 26 23 27 34 39 40 27 29 51 53 53 52 50 49 47 49 47 47 47 48 49 49 49 48 47 47 46 47 47 48 49 50 50 51 51 52 53 53 53 54 55
22 22 22 23 22 23 39 39 32 35 47 53 53 53 51 49 46 48 46 45 45 46 47 48 48 47 47 47 46 46 46 47 49 49 49 49 50 49 48 50 50 50 51 51
29 29 31 26 27 35 39 42 46 47 48 51 51 50 49 46 46 48 46 44 45 46 47 48 46 46 46 47 46 46 47 47 47 47 47 48 49 48 49 48 49 47 48 47
35 36 36 36 38 39 38 42 45 46 48 50 51 50 49 48 47 47 47 45 45 45 46 45 45 45 45 46 46 46 47 47 45 45 46 46 46 46 46 46 47 46 46 46
37 37 34 34 37 38 39 40 43 47 49 49 50 50 49 48 45 47 47 46 45 45 45 45 44 44 44 45 44 45 45 45 44 44 44 44 44 45 44 45 45 45 46 45
38 36 35 36 38 36 37 41 43 46 47 47 47 47 47 47 45 48 49 46 44 45 46 45 44 45 44 44 44 45 44 44 43 43 42 43 43 43 42 42 42 44 43 43
Lifted_Index
1 1 1 2 2 3 3 2 -0 -2 -3 -2 -1 -1 -1 -1 -1 -0 -0 -1 -1 -1 -1 -2 -2 -2 -2 -2 -2 -2 -2 -1 -1 -1 -1 -1 -2 -2 -2 -3 -3 -3 -4 -3
2 2 2 2 3 3 3 2 -0 -2 -3 -2 -2 -1 -1 -1 -1 -0 -0 -1 -1 -1 -1 -2 -2 -2 -2 -2 -2 -1 -1 -2 -2 -1 -1 -1 -2 -2 -2 -3 -3 -3 -3 -3
3 3 3 3 3 3 3 2 0 -2 -2 -2 -1 -1 -1 -1 -1 -1 -1 -1 -1 -1 -1 -2 -2 -2 -2 -2 -1 -1 -2 -2 -2 -2 -2 -2 -2 -3 -3 -3 -3 -3 -3 -3
4 4 4 4 4 3 3 3 1 -1 -2 -1 -1 -0 -1 -1 -1 -1 -1 -1 -1 -1 -1 -2 -2 -2 -2 -1 -1 -2 -2 -2 -2 -2 -2 -3 -3 -3 -3 -3 -3 -3 -3 -3
4 5 5 5 5 4 2 2 1 -0 -1 -0 -0 0 -0 -1 -2 -1 -1 -0 -0 -1 -1 -1 -2 -2 -2 -2 -2 -2 -2 -2 -3 -3 -3 -3 -3 -3 -3 -3 -3 -3 -4 -4
5 5 5 5 5 4 1 -0 -0 -1 -1 -0 0 0 -0 -1 -1 -1 -1 -0 -0 -0 -1 -1 -1 -1 -1 -2 -2 -2 -2 -2 -3 -3 -3 -3 -3 -3 -3 -3 -3 -3 -4 -4
4 4 4 5 5 3 1 -1 -1 -1 -0 -0 0 0 -0 -1 -1 -1 -1 -0 -0 -0 -1 -1 -1 -1 -1 -1 -2 -2 -2 -2 -3 -3 -3 -3 -3 -3 -3 -3 -3 -3 -3 -3
3 3 3 4 4 3 1 0 -0 -0 -0 -0 -1 -1 -0 -1 -1 -1 -1 -0 -0 -0 -0 -0 -1 -1 -1 -1 -2 -2 -2 -2 -3 -3 -3 -3 -3 -3 -3 -3 -3 -3 -3 -3
3 2 2 3 3 3 2 1 0 0 0 -0 -1 -1 -1 -1 -1 -1 -1 -1 -0 -0 -1 -1 -1 -1 -1 -1 -2 -2 -2 -2 -3 -3 -3 -3 -3 -3 -2 -2 -3 -3 -3 -3
2 2 2 2 2 2 2 1 1 0 0 -0 -1 -1 -1 -1 -1 -1 -2 -1 -1 -1 -1 -1 -1 -1 -1 -1 -1 -2 -2 -2 -2 -3 -3 -3 -3 -3 -2 -2 -3 -3 -3 -3
2 2 1 1 1 1 1 1 0 0 1 1 0 -0 -1 -1 -1 -2 -2 -2 -2 -2 -2 -2 -1 -1 -1 -1 -2 -2 -2 -2 -2 -3 -3 -4 -3 -3 -3 -3 -3 -3 -3 -3
1 1 1 0 0 0 0 -0 -0 0 1 1 1 0 -0 -1 -1 -1 -1 -1 -1 -1 -1 -2 -2 -2 -1 -1 -1 -2 -2 -2 -2 -3 -3 -3 -3 -3 -3 -3 -3 -3 -3 -3
1 1 1 0 0 0 -0 -1 -1 -0 0 0 1 0 -1 -1 -1 -1 -1 -1 -1 -1 -1 -1 -1 -1 -1 -1 -1 -1 -1 -1 -1 -2 -2 -2 -2 -2 -3 -3 -3 -4 -4 -4
1 1 1 0 -0 -0 -0 -0 -1 -1 -1 -0 0 0 -1 -2 -2 -1 -2 -2 -2 -1 -1 -0 -1 -1 -1 -0 -0 -1 -1 -1 -1 -1 -1 -1 -1 -1 -2 -3 -3 -4 -4 -4
1 1 1 0 -0 -0 -0 0 -0 -1 -1 -1 -0 -1 -1 -2 -2 -2 -2 -2 -2 -1 -1 -1 -1 -1 -1 -0 -0 -0 -1 -0 -0 0 0 -0 -1 -1 -2 -3 -3 -3 -4 -4
1 1 1 0 0 0 0 0 0 -1 -1 -1 -1 -1 -2 -2 -2 -2 -2 -2 -2 -1 -1 -1 -1 -1 -1 -0 -0 -0 -0 0 1 1 1 0 -1 -2 -2 -2 -2 -3 -3 -3
1 1 1 0 0 0 1 1 0 -1 -2 -2 -1 -2 -2 -2 -2 -2 -2 -2 -1 -1 -1 -1 -2 -2 -1 -1 -1 -1 -0 0 1 1 0 -0 -1 -2 -1 -1 -1 -1 -2 -2
0 0 0 0 0 0 1 1 0 -1 -2 -2 -2 -2 -2 -2 -2 -2 -2 -2 -1 -1 -1 -1 -2 -2 -2 -1 -1 -1 -1 -0 0 -0 -1 -1 -1 -1 -1 -0 0 0 -0 -0
1 0 0 1 1 1 1 1 1 0 -1 -2 -2 -2 -2 -2 -2 -2 -2 -1 -1 -1 -1 -1 -1 -1 -1 -1 -1 -1 -1 -1 -1 -1 -1 -1 0 -0 0 1 1 1 1 1
1 1 1 1 2 2 2 1 1 1 -0 -1 -2 -2 -2 -2 -2 -2 -1 -1 -0 0 0 0 0 -0 0 1 1 1 0 0 1 1 2 3 3 3 3 3 2 2 2 1
2 2 2 2 2 2 2 2 2 1 -0 -2 -2 -2 -2 -2 -2 -1 -1 -0 1 1 1 2 2 2 3 4 4 4 4 4 5 6 7 8 8 8 7 6 6 5 5 4
2 2 2 2 2 2 1 1 1 1 -1 -2 -3 -2 -2 -2 -2 -1 -1 0 1 1 2 3 4 4 6 7 7 7 8 9 10 11 11 11 11 11 10 10 9 9 9 8
1 1 1 2 2 1 1 0 0 -0 -1 -2 -3 -2 -2 -2 -1 -1 -1 -0 0 1 2 3 4 5 7 8 9 10 11 12 13 13 13 13 12 12 12 12 11 11 11 11
-0 0 0 0 0 0 -0 -0 -0 -1 -2 -2 -3 -3 -2 -1 -1 -1 -0 0 1 1 2 3 4 5 6 8 9 11 12 13 14 14 14 13 13 13 13 13 13 13 13 12
-0 -0 -0 -0 -0 -0 -0 -0 -0 -1 -2 -2 -2 -2 -2 -1 -0 0 1 2 2 2 2 4 4 5 6 8 10 12 13 14 14 14 14 14 14 14 14 14 14 14 14 14
-0 0 0 0 -0 -0 -0 -0 -0 -1 -1 -2 -2 -2 -2 -1 -0 1 2 3 3 2 3 4 4 5 7 9 11 12 13 14 14 14 15 15 15 15 15 15 15 15 15 15